• In Hungary
  • List of Countries
  • For 7 days
  • Water Temperature
  • Satellite Maps
  • Weather Map
  • News
  • Weather Widgets
  • user-avatar
    Login

    Hourly Weather Jewłach

    Today, 18 January, Thursday

    Time Temperature Precipitation Wind Pressure Humidity
    00:00 +4°C° 0 mm 1 mps 760 mmHg 62%
    01:00 +4°C° 0 mm 1 mps 760 mmHg 61%
    02:00 +4°C° 0 mm 1 mps 760 mmHg 61%
    03:00 +4°C° 0 mm 1 mps 759 mmHg 59%
    04:00 +4°C° 0 mm 1 mps 759 mmHg 59%
    05:00 +4°C° 0 mm 1 mps 759 mmHg 59%
    06:00 +4°C° 0 mm 1 mps 759 mmHg 59%
    07:00 +5°C° 0 mm 1 mps 759 mmHg 57%
    08:00 +5°C° 0 mm 1 mps 759 mmHg 56%
    09:00 +6°C° 0 mm 1 mps 758 mmHg 52%
    10:00 +7°C° 0 mm 1 mps 758 mmHg 50%
    11:00 +8°C° 0 mm 1 mps 757 mmHg 48%
    12:00 +8°C° 0 mm 1 mps 757 mmHg 46%
    13:00 +9°C° 0 mm 1 mps 756 mmHg 45%
    14:00 +9°C° 0 mm 1 mps 756 mmHg 45%
    15:00 +9°C° 0 mm 1 mps 755 mmHg 44%
    16:00 +8°C° 0 mm 1 mps 755 mmHg 47%
    17:00 +7°C° 0 mm 1 mps 755 mmHg 50%
    18:00 +6°C° 0 mm 2 mps 755 mmHg 53%
    19:00 +5°C° 0 mm 2 mps 754 mmHg 54%
    20:00 +5°C° 0 mm 2 mps 754 mmHg 55%
    21:00 +5°C° 0 mm 2 mps 754 mmHg 56%
    22:00 +5°C° 0 mm 2 mps 754 mmHg 57%
    23:00 +4°C° 0 mm 3 mps 754 mmHg 58%

    Tomorrow, 19 January, Friday

    Time Temperature Precipitation Wind Pressure Humidity
    00:00 +4°C° 0 mm 3 mps 754 mmHg 59%
    01:00 +4°C° 0 mm 3 mps 754 mmHg 60%
    02:00 +4°C° 0 mm 3 mps 753 mmHg 61%
    03:00 +4°C° 0 mm 3 mps 753 mmHg 62%
    04:00 +4°C° 0 mm 3 mps 753 mmHg 61%
    05:00 +4°C° 0 mm 4 mps 754 mmHg 61%
    06:00 +4°C° 0 mm 4 mps 754 mmHg 61%
    07:00 +5°C° 0 mm 4 mps 754 mmHg 58%
    08:00 +6°C° 0 mm 4 mps 754 mmHg 55%
    09:00 +7°C° 0 mm 4 mps 754 mmHg 52%
    10:00 +10°C° 0 mm 4 mps 754 mmHg 48%
    11:00 +12°C° 0 mm 5 mps 754 mmHg 43%
    12:00 +13°C° 0 mm 5 mps 753 mmHg 39%
    13:00 +13°C° 0 mm 5 mps 753 mmHg 39%
    14:00 +14°C° 0 mm 4 mps 754 mmHg 38%
    15:00 +14°C° 0 mm 4 mps 754 mmHg 37%
    16:00 +13°C° 0 mm 4 mps 754 mmHg 41%
    17:00 +12°C° 0 mm 3 mps 755 mmHg 45%
    18:00 +11°C° 0 mm 3 mps 756 mmHg 49%
    19:00 +10°C° 0 mm 3 mps 757 mmHg 48%
    20:00 +10°C° 0 mm 3 mps 757 mmHg 48%
    21:00 +10°C° 0 mm 3 mps 757 mmHg 48%
    22:00 +9°C° 0 mm 3 mps 757 mmHg 49%
    23:00 +9°C° 0 mm 3 mps 758 mmHg 50%

    Day after tomorrow, 20 January, Saturday

    Time Temperature Precipitation Wind Pressure Humidity
    00:00 +9°C° 0 mm 3 mps 758 mmHg 51%
    01:00 +9°C° 0 mm 3 mps 759 mmHg 51%
    02:00 +9°C° 0 mm 3 mps 759 mmHg 51%
    03:00 +9°C° 0 mm 3 mps 759 mmHg 51%
    04:00 +8°C° 0 mm 4 mps 760 mmHg 52%
    05:00 +8°C° 0 mm 4 mps 760 mmHg 53%
    06:00 +8°C° 0 mm 4 mps 760 mmHg 54%
    07:00 +9°C° 0 mm 3 mps 761 mmHg 55%
    08:00 +9°C° 0 mm 2 mps 762 mmHg 56%
    09:00 +9°C° 0 mm 2 mps 762 mmHg 56%
    10:00 +10°C° 0 mm 2 mps 762 mmHg 53%
    11:00 +12°C° 0 mm 2 mps 762 mmHg 50%
    12:00 +13°C° 0 mm 2 mps 763 mmHg 47%
    13:00 +13°C° 0 mm 2 mps 763 mmHg 46%
    14:00 +14°C° 0 mm 2 mps 763 mmHg 46%
    15:00 +14°C° 0 mm 2 mps 763 mmHg 45%
    16:00 +13°C° 0 mm 2 mps 764 mmHg 51%
    17:00 +12°C° 0 mm 2 mps 764 mmHg 57%
    18:00 +9°C° 0 mm 2 mps 765 mmHg 63%
    19:00 +9°C° 0 mm 2 mps 765 mmHg 65%
    20:00 +8°C° 0 mm 2 mps 766 mmHg 68%
    21:00 +8°C° 0 mm 2 mps 766 mmHg 70%
    22:00 +7°C° 0 mm 2 mps 766 mmHg 70%
    23:00 +8°C° 0 mm 1 mps 766 mmHg 70%

    21 January, Sunday

    Time Temperature Precipitation Wind Pressure Humidity
    00:00 +8°C° 0 mm 1 mps 766 mmHg 70%
    01:00 +8°C° 0 mm 1 mps 766 mmHg 70%
    02:00 +7°C° 0 mm 1 mps 766 mmHg 69%
    03:00 +7°C° 0 mm 1 mps 766 mmHg 69%
    04:00 +7°C° 0 mm 1 mps 765 mmHg 68%
    05:00 +7°C° 0 mm 1 mps 765 mmHg 67%
    06:00 +6°C° 0 mm 2 mps 765 mmHg 66%
    07:00 +6°C° 0 mm 2 mps 765 mmHg 62%
    08:00 +7°C° 0 mm 2 mps 764 mmHg 58%
    09:00 +8°C° 0 mm 2 mps 764 mmHg 54%
    10:00 +9°C° 0 mm 2 mps 764 mmHg 49%
    11:00 +12°C° 0 mm 2 mps 763 mmHg 44%
    12:00 +12°C° 0 mm 3 mps 762 mmHg 40%
    13:00 +13°C° 0 mm 3 mps 762 mmHg 38%
    14:00 +13°C° 0 mm 4 mps 761 mmHg 37%
    15:00 +14°C° 0 mm 4 mps 761 mmHg 36%
    16:00 +13°C° 0 mm 4 mps 761 mmHg 39%
    17:00 +12°C° 0 mm 4 mps 761 mmHg 42%
    18:00 +11°C° 0 mm 3 mps 762 mmHg 45%
    19:00 +10°C° 0 mm 3 mps 762 mmHg 44%
    20:00 +10°C° 0 mm 3 mps 762 mmHg 44%
    21:00 +10°C° 0 mm 3 mps 762 mmHg 43%
    22:00 +9°C° 0 mm 2 mps 762 mmHg 43%
    23:00 +9°C° 0 mm 2 mps 762 mmHg 43%

    22 January, Monday

    Time Temperature Precipitation Wind Pressure Humidity
    00:00 +9°C° 0 mm 2 mps 761 mmHg 43%
    01:00 +9°C° 0 mm 1 mps 761 mmHg 43%
    02:00 +9°C° 0 mm 1 mps 761 mmHg 44%
    03:00 +9°C° 0 mm 1 mps 761 mmHg 44%
    04:00 +8°C° 0 mm 1 mps 761 mmHg 45%
    05:00 +8°C° 0 mm 1 mps 760 mmHg 47%
    06:00 +8°C° 0 mm 1 mps 760 mmHg 48%
    07:00 +9°C° 0 mm 1 mps 760 mmHg 47%
    08:00 +9°C° 0 mm 1 mps 760 mmHg 46%
    09:00 +10°C° 0 mm 1 mps 760 mmHg 45%
    10:00 +11°C° 0 mm 1 mps 759 mmHg 42%
    11:00 +12°C° 0 mm 1 mps 758 mmHg 39%
    12:00 +13°C° 0 mm 1 mps 757 mmHg 37%
    13:00 +13°C° 0 mm 1 mps 757 mmHg 36%
    14:00 +13°C° 0 mm 1 mps 756 mmHg 35%
    15:00 +14°C° 0 mm 2 mps 756 mmHg 34%
    16:00 +13°C° 0 mm 2 mps 756 mmHg 37%
    17:00 +12°C° 0 mm 2 mps 756 mmHg 40%
    18:00 +10°C° 0 mm 2 mps 756 mmHg 44%
    19:00 +9°C° 0 mm 2 mps 756 mmHg 43%
    20:00 +9°C° 0 mm 2 mps 756 mmHg 43%
    21:00 +9°C° 0 mm 3 mps 756 mmHg 42%
    22:00 +9°C° 0 mm 3 mps 756 mmHg 41%
    23:00 +8°C° 0 mm 3 mps 756 mmHg 39%

    23 January, Tuesday

    Time Temperature Precipitation Wind Pressure Humidity
    00:00 +8°C° 0 mm 3 mps 756 mmHg 38%
    01:00 +7°C° 0 mm 4 mps 756 mmHg 36%
    02:00 +7°C° 0 mm 4 mps 756 mmHg 34%
    03:00 +7°C° 0 mm 4 mps 756 mmHg 32%
    04:00 +7°C° 0 mm 4 mps 756 mmHg 33%
    05:00 +7°C° 0 mm 4 mps 757 mmHg 33%
    06:00 +7°C° 0 mm 4 mps 757 mmHg 33%
    07:00 +8°C° 0 mm 4 mps 757 mmHg 32%
    08:00 +10°C° 0 mm 4 mps 757 mmHg 32%
    09:00 +10°C° 0 mm 4 mps 757 mmHg 31%
    10:00 +12°C° 0 mm 4 mps 757 mmHg 29%
    11:00 +13°C° 0 mm 4 mps 756 mmHg 26%
    12:00 +15°C° 0 mm 4 mps 756 mmHg 24%
    13:00 +15°C° 0 mm 4 mps 756 mmHg 24%
    14:00 +15°C° 0 mm 4 mps 756 mmHg 25%
    15:00 +15°C° 0 mm 4 mps 756 mmHg 25%
    16:00 +14°C° 0 mm 4 mps 756 mmHg 28%
    17:00 +13°C° 0 mm 3 mps 757 mmHg 30%
    18:00 +12°C° 0 mm 3 mps 757 mmHg 33%
    19:00 +11°C° 0 mm 3 mps 757 mmHg 34%
    20:00 +11°C° 0 mm 3 mps 757 mmHg 35%
    21:00 +11°C° 0 mm 3 mps 757 mmHg 36%
    22:00 +11°C° 0 mm 3 mps 757 mmHg 38%
    23:00 +10°C° 0 mm 3 mps 757 mmHg 39%
    Show more